Weather in Antipolo

Philippines     14°34′51″N   121°10′55″E
temp.,
°C
wind,
m/s
gust,
m/s
humid.,
%
clouds,
%
prec.,
mm/h
press.,
hPa
HPBL,
m
9 march, tue
tue923:00+24e488112 0.0 1015645
02:00+24e378230 0.0 1013692
05:00+24ene378267 0.0 1014615
08:00+26ne6107049 0.0 10151063
11:00+29ene6106318 0.0 10151407
14:00+29ene696011 0.0 10131208
17:00+28ene69660 0.0 10131236
20:00+24ene48790 0.0 1015648
10 march, wed
wed1023:00+24ene48825 0.0 1016706
02:00+24ene498111 0.3 1014755
05:00+24ene410800 0.0 1014740
08:00+26ne5106924 0.0 10161061
11:00+29ene610631 0.0 10151419
14:00+29ene6106119 0.1 10121390
17:00+27ene71166100 0.0 10131196
20:00+24ene5107862 0.0 1015788
11 march, thu
thu1123:00+24ene510780 0.0 1016784
02:00+24ene497939 0.0 1014757
05:00+24ene498071 0.0 1014781
08:00+26ene5117185 0.0 10161165
11:00+29ene7105810 0.0 10151344
14:00+30ene795844 0.0 1012903
17:00+28ene6106422 0.0 10121275
20:00+24ene477916 0.0 1015679
12 march, fri
fri1223:00+24ne388098 0.0 1015699
02:00+24ne378099 0.1 1014765
05:00+24ne2778100 0.1 1013850
08:00+26ne387397 0.1 10151063
11:00+28ene6106644 0.1 10141429
14:00+29ne6116372 0.1 10111333
17:00+27ene6106969 0.0 10121114
20:00+25ene387982 0.0 1013724
13 march, sat
sat1323:00+24ne388197 0.0 1014665
02:00+24ne368285 0.0 1012540
05:00+24nne2582100 0.0 1012407
08:00+26ne4971100 0.0 10131048
11:00+29ne6963100 0.0 10131340
14:00+30ene695995 0.0 1010882
17:00+28ene596887 0.0 10091159
20:00+25e387994 0.0 1011651